Date,TemperatureHighF,TemperatureAvgF,TemperatureLowF,DewpointHighF,DewpointAvgF,DewpointLowF,HumidityHigh,HumidityAvg,HumidityLow,PressureMaxIn,PressureMinIn,WindSpeedMaxMPH,WindSpeedAvgMPH,GustSpeedMaxMPH,PrecipitationSumIn
2013-1-1,61,41,30,40,32,28,96,76,32,30.30,30.19,2,0,0,0.00
2013-1-2,57,38,26,40,32,24,95,82,51,30.25,30.14,4,0,0,0.00
2013-1-3,58,38,26,43,33,24,95,82,52,30.28,30.18,2,0,0,0.00
2013-1-4,59,41,30,43,35,28,95,83,54,30.31,30.18,2,0,0,0.00
2013-1-5,45,39,31,44,38,29,95,93,85,30.27,30.06,1,0,0,0.00
2013-1-6,56,45,36,47,42,34,96,89,69,30.21,30.08,1,0,0,0.00
2013-1-7,61,44,33,51,41,31,96,87,65,30.27,30.14,1,0,0,0.00
2013-1-8,65,45,35,51,42,33,96,88,61,30.25,30.12,2,0,0,0.00
2013-1-9,51,42,35,48,40,32,96,91,73,30.16,29.98,4,0,0,0.00
2013-1-10,52,39,29,37,32,27,96,77,50,30.21,30.08,4,1,0,0.00
2013-1-11,55,40,32,42,34,28,90,79,55,30.26,30.11,2,0,0,0.00
2013-1-12,54,39,28,35,31,26,94,75,40,30.27,30.14,1,0,0,0.00
2013-1-13,54,36,23,35,28,17,94,77,34,30.28,30.18,2,0,0,0.00
2013-1-14,58,40,27,35,26,13,88,60,28,30.41,30.24,2,0,0,0.00
2013-1-15,55,38,27,35,30,25,94,77,45,30.50,30.40,3,0,0,0.00
2013-1-16,61,39,26,40,32,24,94,78,38,30.46,30.28,2,0,0,0.00
2013-1-17,64,39,26,45,33,24,94,81,43,30.29,30.16,2,0,0,0.00
2013-1-18,65,40,26,45,34,24,95,80,43,30.25,30.13,2,0,0,0.00
2013-1-19,64,41,26,43,34,24,94,79,45,30.27,30.15,2,0,0,0.00
2013-1-20,64,41,27,42,33,25,94,77,41,30.24,30.12,3,0,0,0.00
2013-1-21,66,41,26,45,34,24,94,79,46,30.19,30.08,3,0,0,0.00
2013-1-22,62,43,29,44,36,27,95,78,49,30.13,29.98,2,0,0,0.00
2013-1-23,50,47,44,47,44,39,95,90,83,30.09,29.96,1,0,0,0.00
2013-1-24,60,51,47,54,49,46,96,91,78,30.19,30.08,2,0,0,0.00
2013-1-25,63,53,47,55,50,44,96,89,72,30.20,30.04,3,0,0,0.00
2013-1-26,60,48,39,47,42,35,96,80,49,30.08,29.97,3,0,0,0.00
2013-1-27,58,44,31,39,35,29,95,72,43,30.19,30.07,3,1,0,0.00
2013-1-28,58,47,35,41,38,32,93,71,49,30.29,30.18,5,1,0,0.00
2013-1-29,64,50,39,45,40,35,90,71,46,30.36,30.26,4,1,0,0.00
2013-1-30,69,51,37,49,42,35,94,74,47,30.34,30.25,2,0,0,0.00
2013-1-31,67,50,32,49,42,30,95,77,50,30.31,30.18,3,0,0,0.00
2013-2-1,70,48,32,52,41,30,95,79,51,30.22,30.11,3,0,0,0.00
2013-2-2,61,47,39,51,43,37,96,87,69,30.31,30.22,2,0,0,0.00
2013-2-3,61,48,38,50,43,36,95,85,65,30.26,30.14,3,0,0,0.00
2013-2-4,55,44,38,49,42,36,100,91,78,30.19,30.07,3,0,0,0.00
2013-2-5,64,49,41,51,44,37,94,84,61,30.16,30.04,1,0,0,0.00
2013-2-6,62,44,31,47,38,29,95,80,53,30.21,30.10,2,0,0,0.00
2013-2-7,57,47,38,46,40,36,95,80,48,30.16,30.00,3,0,0,0.00
2013-2-8,60,44,32,40,35,30,95,75,36,30.03,29.93,3,1,0,0.00
2013-2-9,63,44,29,37,32,26,93,67,24,30.11,30.01,4,1,0,0.00
2013-2-10,66,42,28,48,35,26,94,76,39,30.13,30.01,4,0,0,0.00
2013-2-11,68,47,33,43,36,31,94,70,30,30.24,30.09,3,1,0,0.00
2013-2-12,63,46,33,47,40,31,95,83,52,30.37,30.23,3,0,0,0.00
2013-2-13,66,45,31,48,39,29,95,81,49,30.35,30.21,4,1,0,0.00
2013-2-14,70,48,35,53,41,33,95,78,43,30.27,30.15,4,1,0,0.00
2013-2-15,72,50,33,49,41,31,95,75,42,30.27,30.20,4,0,0,0.00
2013-2-16,72,49,36,50,42,34,95,78,37,30.25,30.06,4,1,0,0.00
2013-2-17,65,47,37,47,40,35,95,79,42,30.07,29.97,4,1,0,0.00
2013-2-18,54,44,36,44,39,34,95,84,66,30.03,29.91,2,0,0,0.00
2013-2-19,54,42,34,42,36,31,94,81,51,29.96,29.74,3,1,0,0.00
2013-2-20,61,44,28,39,33,26,94,70,37,30.07,29.86,3,1,0,0.00
2013-2-21,66,48,36,41,36,31,88,66,30,30.18,30.06,3,1,0,0.00
2013-2-22,62,47,32,46,39,30,94,76,40,30.27,30.16,5,1,0,0.00
2013-2-23,62,49,40,42,36,31,92,63,33,30.28,30.17,5,1,0,0.00
2013-2-24,70,50,36,40,34,25,87,60,20,30.28,30.15,3,1,0,0.00
2013-2-25,70,47,32,44,36,21,94,71,16,30.28,30.15,4,1,0,0.00
2013-2-26,73,50,36,41,35,28,92,61,21,30.23,30.14,4,1,0,0.00
2013-2-27,69,48,31,45,38,29,94,72,34,30.36,30.22,5,1,0,0.00
2013-2-28,70,54,43,56,48,41,94,80,60,30.45,30.36,5,1,0,0.00
2013-3-1,75,53,39,55,45,37,99,77,45,30.43,30.24,2,0,0,0.00
2013-3-2,70,54,42,56,47,40,95,80,55,30.25,30.05,3,0,0,0.00
2013-3-3,66,53,47,52,47,43,90,81,56,30.09,30.01,6,2,0,0.00
2013-3-4,58,47,39,47,43,36,93,84,68,30.15,30.06,3,1,0,0.00
2013-3-5,54,45,33,46,40,31,95,84,70,30.08,29.78,8,2,0,0.00
2013-3-6,57,49,39,48,42,36,93,79,55,30.06,29.78,8,2,0,0.00
2013-3-7,57,44,34,44,38,32,95,80,50,30.01,29.87,4,0,0,0.00
2013-3-8,67,48,33,47,39,31,99,74,35,30.03,29.84,2,0,0,0.00
2013-3-9,74,50,33,49,40,31,95,72,29,30.32,30.03,3,0,0,0.00
2013-3-10,72,50,34,49,40,32,95,74,29,30.35,30.23,5,1,0,0.00
2013-3-11,72,50,36,50,42,34,95,78,40,30.27,30.10,4,1,0,0.00
2013-3-12,73,52,40,56,45,38,95,81,49,30.17,30.06,5,1,0,0.00
2013-3-13,82,55,40,59,47,38,96,78,41,30.17,30.05,3,0,0,0.00
2013-3-14,70,54,43,57,47,41,95,80,56,30.17,30.09,4,1,0,0.00
2013-3-15,73,53,40,56,46,38,95,79,47,30.14,30.02,4,1,0,0.00
2013-3-16,76,56,38,55,43,34,95,67,22,30.12,30.01,6,1,0,0.00
2013-3-17,70,54,41,48,41,35,85,64,30,30.15,30.03,5,1,0,0.00
2013-3-18,67,50,37,48,42,35,95,76,47,30.12,30.02,4,1,0,0.00
2013-3-19,62,50,42,50,44,40,94,80,56,30.13,30.05,1,0,0,0.00
2013-3-20,60,51,45,56,48,43,95,91,80,30.14,30.06,2,0,0,0.00
2013-3-21,69,51,36,48,42,34,95,73,41,30.14,30.00,3,1,0,0.00
2013-3-22,72,54,42,40,36,29,77,54,23,30.14,30.02,3,1,0,0.00
2013-3-23,70,51,36,44,38,33,92,65,31,30.15,30.03,4,1,0,0.00
2013-3-24,70,50,37,51,42,35,95,76,42,30.09,29.96,6,1,0,0.00
2013-3-25,58,48,39,48,42,37,95,83,62,30.04,29.94,4,1,0,0.00
2013-3-26,64,50,40,50,44,38,95,81,55,30.01,29.93,4,1,0,0.00
2013-3-27,62,51,43,53,47,41,94,86,69,30.02,29.95,3,0,0,0.00
2013-3-28,65,54,47,55,50,45,95,86,70,30.09,30.01,2,0,0,0.00
2013-3-29,77,58,48,59,51,47,95,81,47,30.10,30.01,3,1,0,0.00
2013-3-30,68,56,49,56,50,-100,93,84,63,30.08,30.00,3,0,0,0.00
2013-3-31,61,55,51,56,52,49,95,92,77,30.07,30.00,2,0,0,0.00
2013-4-1,66,56,49,55,51,46,96,86,64,30.15,30.05,4,0,0,0.00
2013-4-2,66,52,44,57,48,42,95,88,69,30.20,30.09,5,1,0,0.00
2013-4-3,75,54,47,59,49,45,95,86,55,30.14,29.98,4,1,0,0.00
2013-4-4,59,53,48,57,51,46,96,93,88,30.12,29.98,3,1,0,0.00
2013-4-5,67,56,52,56,52,49,96,86,66,30.19,30.11,2,0,0,0.00
2013-4-6,67,56,51,57,52,48,94,85,69,30.19,30.11,4,1,0,0.00
2013-4-7,65,55,49,54,50,45,94,82,61,30.17,29.82,2,1,0,0.00
2013-4-8,70,55,45,45,39,35,88,57,31,30.06,29.81,5,3,0,0.00
2013-4-9,80,61,46,46,41,36,78,53,22,30.13,30.03,2,1,0,0.00
2013-4-10,87,66,46,63,49,42,89,59,26,30.18,30.01,3,1,0,0.00
2013-4-11,80,62,47,54,47,42,85,62,32,30.05,29.83,4,1,0,0.00
2013-4-12,72,54,41,55,46,39,95,76,49,29.92,29.81,5,1,0,0.00
2013-4-13,77,58,42,54,43,37,93,62,34,29.90,29.80,4,1,0,0.00
2013-4-14,72,57,42,48,39,27,83,54,24,29.93,29.84,5,2,0,0.00
2013-4-15,63,50,40,44,36,30,94,62,33,29.97,29.86,6,2,0,0.00
2013-4-16,72,55,41,40,34,27,73,49,20,30.18,29.97,3,1,0,0.00
2013-4-17,76,57,39,45,35,21,85,51,14,30.28,30.16,3,1,0,0.00
2013-4-18,79,59,42,49,42,38,86,59,26,30.26,30.17,4,1,0,0.00
2013-4-19,79,60,42,58,47,40,94,67,32,30.23,30.06,4,1,0,0.00
2013-4-20,82,63,46,52,46,41,84,57,28,30.11,29.96,5,1,0,0.00
2013-4-21,86,62,42,58,48,40,94,65,27,30.03,29.91,3,1,0,0.00
2013-4-22,92,67,47,57,50,44,94,62,19,29.97,29.84,4,1,0,0.00
2013-4-23,84,62,46,52,42,24,91,55,12,29.92,29.86,4,1,0,0.00
2013-4-24,62,52,45,50,46,43,93,81,64,29.97,29.84,4,1,0,0.00
2013-4-25,66,54,49,52,47,44,86,76,59,30.13,29.96,4,0,0,0.00
2013-4-26,68,52,43,55,47,41,93,83,64,30.24,30.12,4,1,0,0.00
2013-4-27,71,54,46,57,48,43,94,82,57,30.24,30.07,5,1,0,0.00
2013-4-28,85,61,40,60,50,38,95,70,37,30.07,29.86,2,1,0,0.00
2013-4-29,87,69,50,62,52,47,93,60,32,29.90,29.75,4,1,0,0.00
2013-4-30,88,69,47,48,43,33,90,46,16,29.87,29.77,2,1,0,0.00
2013-5-1,91,71,51,47,31,14,61,28,6,30.08,29.85,3,1,0,0.00
2013-5-2,94,67,43,47,39,28,88,46,12,30.15,30.06,2,0,0,0.00
2013-5-3,90,64,43,54,44,38,87,54,20,30.07,29.80,4,1,0,0.00
2013-5-4,89,62,45,56,48,42,92,65,23,29.80,29.57,3,0,0,0.00
2013-5-5,64,58,52,52,50,48,88,74,62,29.83,29.62,4,1,0,0.00
2013-5-6,71,59,50,55,51,47,92,74,50,29.98,29.82,2,0,0,0.00
2013-5-7,74,60,50,56,52,47,93,76,49,30.04,29.97,4,1,0,0.00
2013-5-8,65,54,50,55,49,47,92,83,69,30.14,30.03,4,1,0,0.00
2013-5-9,69,56,48,56,50,45,92,80,61,30.16,30.07,4,2,0,0.00
2013-5-10,70,56,50,58,49,-100,92,80,62,30.18,30.09,4,1,0,0.00
2013-5-11,84,59,49,63,50,-100,95,79,46,30.15,30.04,3,1,0,0.00
2013-5-12,78,60,48,62,52,46,94,77,55,30.14,30.01,6,2,0,0.00
2013-5-13,83,62,49,64,53,47,95,74,50,30.08,29.93,4,1,0,0.00
2013-5-14,82,64,48,57,50,45,90,65,40,29.97,29.86,5,2,0,0.00
2013-5-15,82,61,45,53,47,41,92,64,36,30.02,29.95,4,1,0,0.00
2013-5-16,76,58,52,55,34,-100,83,67,42,30.01,29.93,2,1,0,0.00
2013-5-17,75,57,42,51,42,-100,94,67,37,30.06,29.96,3,1,0,0.00
2013-5-18,84,62,41,53,46,39,94,62,30,30.13,30.04,4,1,0,0.00
2013-5-19,88,67,46,51,46,42,87,53,23,30.13,29.96,3,1,0,0.00
2013-5-20,90,65,49,53,47,39,89,61,18,29.99,29.89,5,1,0,0.00
2013-5-21,76,60,46,49,42,36,91,58,24,30.00,29.90,4,2,0,0.00
2013-5-22,74,58,45,44,36,31,61,45,24,30.04,29.88,5,2,0,0.00
2013-5-23,74,58,41,46,41,36,85,57,30,30.00,29.91,3,1,0,0.00
2013-5-24,77,57,39,48,43,36,92,63,31,29.99,29.90,4,1,0,0.00
2013-5-25,75,58,41,51,45,38,92,65,40,30.03,29.94,5,1,0,0.00
2013-5-26,77,61,48,55,49,45,93,68,43,30.11,30.02,2,0,0,0.00
2013-5-27,66,56,48,57,51,44,93,82,70,30.10,29.99,1,0,0,0.00
2013-5-28,76,62,55,59,54,49,95,78,53,30.00,29.91,3,1,0,0.00
2013-5-29,80,66,55,58,53,47,86,66,41,29.96,29.86,3,1,0,0.00
2013-5-30,86,63,43,52,46,40,94,60,25,29.98,29.90,3,0,0,0.00
2013-5-31,93,67,46,55,48,42,91,57,22,30.01,29.88,4,1,0,0.00
2013-6-1,92,72,49,60,51,45,87,53,28,29.92,29.75,3,0,0,0.00
2013-6-2,82,65,51,56,50,45,83,61,37,29.77,29.63,5,1,0,0.00
2013-6-3,71,58,47,55,50,45,94,76,55,29.88,29.70,2,0,0,0.00
2013-6-4,67,57,53,54,51,49,86,79,63,29.98,29.86,4,0,0,0.00
2013-6-5,71,58,52,55,51,48,88,77,57,30.00,29.92,4,1,0,0.00
2013-6-6,76,58,51,58,51,47,91,79,52,29.96,29.85,5,1,0,0.00
2013-6-7,87,64,50,64,54,48,94,73,41,29.89,29.70,4,1,0,0.00
2013-6-8,90,66,53,65,55,50,90,70,42,29.84,29.70,3,0,0,0.00
2013-6-9,68,59,55,56,53,52,90,81,65,29.89,29.83,2,0,0,0.00
2013-6-10,62,58,54,56,54,52,94,85,72,29.96,29.80,2,0,0,0.00
2013-6-11,80,64,54,60,54,48,91,72,47,29.98,29.87,3,1,0,0.00
2013-6-12,87,64,43,53,45,32,95,58,15,29.98,29.89,4,1,0,0.00
2013-6-13,89,65,43,50,45,39,91,53,22,30.08,29.98,3,1,0,0.00
2013-6-14,88,66,50,52,48,41,84,56,22,29.99,29.80,4,1,0,0.00
2013-6-15,79,59,44,55,49,42,94,71,42,29.97,29.82,6,1,0,0.00
2013-6-16,91,66,45,56,49,43,93,60,27,30.06,29.97,3,1,0,0.00
2013-6-17,83,65,49,58,51,45,88,64,41,30.08,29.98,2,1,0,0.00
2013-6-18,76,62,49,54,49,45,91,65,38,30.01,29.93,2,0,0,0.00
2013-6-19,82,64,47,53,47,39,85,57,26,30.04,29.96,2,0,0,0.00
2013-6-20,83,60,46,52,46,42,88,64,28,30.01,29.92,4,0,0,0.00
2013-6-21,89,84,80,53,50,47,39,31,24,29.93,29.86,3,2,0,0.00
2013-6-22,91,79,48,55,51,44,87,41,22,29.92,29.80,6,2,0,0.00
2013-6-23,70,62,55,60,55,51,89,79,69,29.85,29.80,3,2,0,0.00
2013-6-24,63,59,56,58,55,53,94,88,80,29.89,29.78,2,1,0,0.00
2013-6-25,64,61,58,63,60,56,95,95,94,29.97,29.86,2,1,0,0.00
2013-6-26,82,68,60,67,62,57,96,83,56,30.05,29.96,2,0,0,0.00
2013-6-27,93,71,57,68,60,56,95,73,40,30.08,29.98,3,1,0,0.00
2013-6-28,95,75,57,70,62,54,95,68,42,30.02,29.86,3,1,0,0.00
2013-6-29,100,78,57,67,60,53,89,58,31,29.90,29.76,3,1,0,0.00
2013-6-30,90,73,56,65,58,51,85,61,36,29.83,29.73,4,1,0,0.00
2013-7-1,96,70,54,67,58,51,92,67,36,29.82,29.78,4,1,0,0.00
2013-7-2,91,70,58,67,58,54,88,67,42,29.91,29.80,3,1,0,0.00
2013-7-3,87,69,56,66,58,54,93,70,46,29.91,29.75,4,1,0,0.00
2013-7-4,97,77,61,65,58,45,82,56,19,29.80,29.64,4,1,0,0.00
2013-7-5,83,66,54,59,52,47,84,63,43,29.74,29.67,4,2,0,0.00
2013-7-6,77,59,50,60,52,47,93,78,52,29.79,29.72,3,1,0,0.00
2013-7-7,77,60,52,60,53,49,91,78,52,29.87,29.78,3,1,0,0.00
2013-7-8,80,59,52,61,51,-100,91,80,49,29.98,29.86,2,0,0,0.00
2013-7-9,93,65,50,62,53,48,94,71,31,30.04,29.92,3,1,0,0.00
2013-7-10,77,59,50,58,49,-100,92,75,46,29.99,29.90,4,1,0,0.00
2013-7-11,73,57,50,57,51,47,92,81,56,29.96,29.86,3,1,0,0.00
2013-7-12,77,60,52,58,52,49,91,77,51,29.95,29.85,3,1,0,0.00
2013-7-13,82,62,46,60,52,44,95,73,44,29.95,29.89,4,1,0,0.00
2013-7-14,77,60,51,59,52,49,92,77,51,30.00,29.89,3,1,0,0.00
2013-7-15,69,56,49,55,50,46,92,83,61,29.93,29.85,3,1,0,0.00
2013-7-16,68,58,53,57,52,50,91,81,68,30.02,29.87,2,0,0,0.00
2013-7-17,77,60,49,61,53,47,94,80,55,30.09,30.01,4,1,0,0.00
2013-7-18,79,61,53,60,54,50,94,80,49,30.06,29.92,5,1,0,0.00
2013-7-19,83,62,51,63,53,49,94,77,47,29.95,29.81,5,1,0,0.00
2013-7-20,85,61,51,63,52,-100,94,77,43,29.85,29.72,4,1,0,0.00
2013-7-21,80,62,52,61,53,48,91,74,47,29.89,29.77,1,0,0,0.00
2013-7-22,85,64,50,63,55,48,93,75,46,29.97,29.89,2,0,0,0.00
2013-7-23,77,65,57,61,56,53,88,75,52,29.99,29.93,2,1,0,0.00
2013-7-24,82,64,54,61,55,51,94,75,46,29.99,29.89,3,1,0,0.00
2013-7-25,76,60,52,59,53,49,93,78,53,30.02,29.92,5,2,0,0.00
2013-7-26,75,57,52,59,52,49,92,83,56,30.10,30.00,4,1,0,0.00
2013-7-27,76,59,52,59,53,50,92,80,55,30.03,29.87,3,1,0,0.00
2013-7-28,73,58,52,58,52,49,93,82,58,29.88,29.80,2,0,0,0.00
2013-7-29,73,58,54,59,52,49,89,80,59,30.02,29.84,2,0,0,0.00
2013-7-30,73,58,53,58,52,50,92,81,59,30.11,30.01,3,0,0,0.00
2013-7-31,77,61,52,59,53,50,93,77,52,30.09,29.95,4,1,0,0.00
2013-8-1,79,62,45,56,51,43,95,71,43,30.04,29.92,4,1,0,0.00
2013-8-2,84,63,47,56,51,45,94,69,37,29.97,29.86,4,1,0,0.00
2013-8-3,77,59,49,58,52,46,94,79,51,29.97,29.91,3,1,0,0.00
2013-8-4,73,58,51,57,51,48,93,81,55,30.01,29.94,4,1,0,0.00
2013-8-5,73,58,51,58,51,48,91,80,55,30.03,29.93,3,1,0,0.00
2013-8-6,73,59,52,57,52,49,92,78,56,30.04,29.98,3,1,0,0.00
2013-8-7,71,61,54,58,54,51,91,79,64,30.09,30.03,1,0,0,0.00
2013-8-8,73,60,52,60,54,50,93,80,59,30.03,29.93,3,1,0,0.00
2013-8-9,73,58,53,59,53,50,93,83,59,29.98,29.92,3,1,0,0.00
2013-8-10,75,61,55,60,54,52,91,80,58,30.05,29.98,3,1,0,0.00
2013-8-11,77,61,53,61,54,51,94,81,54,30.02,29.92,5,2,0,0.00
2013-8-12,81,60,52,61,53,50,94,79,46,30.00,29.92,4,1,0,0.00
2013-8-13,89,65,53,61,53,-100,93,71,33,29.99,29.88,4,1,0,0.00
2013-8-14,91,66,47,61,54,45,94,69,32,29.97,29.85,5,1,0,0.00
2013-8-15,87,62,52,67,44,-100,95,72,48,29.94,29.88,4,1,0,0.00
2013-8-16,89,66,56,66,55,-100,95,75,41,29.97,29.91,5,1,0,0.00
2013-8-17,87,67,51,62,54,-100,95,69,41,29.97,29.81,4,1,0,0.00
2013-8-18,92,70,53,65,57,50,93,67,39,29.87,29.75,4,1,0,0.00
2013-8-19,87,65,57,64,48,-100,88,69,39,29.88,29.78,2,0,0,0.00
2013-8-20,82,64,58,63,56,-100,92,80,50,29.90,29.82,2,0,0,0.00
2013-8-21,77,62,54,60,55,50,88,78,51,29.95,29.86,2,0,0,0.00
2013-8-22,75,61,52,59,54,49,93,79,56,29.98,29.88,3,1,0,0.00
2013-8-23,77,63,54,60,55,51,91,76,54,29.92,29.77,5,1,0,0.00
2013-8-24,84,64,50,62,53,-100,94,72,44,29.87,29.80,5,1,0,0.00
2013-8-25,79,66,58,65,59,54,89,77,58,29.93,29.85,2,1,0,0.00
2013-8-26,85,67,56,61,57,52,93,73,38,30.00,29.87,4,1,0,0.00
2013-8-27,83,58,49,58,51,47,95,81,43,29.89,29.84,2,0,0,0.00
2013-8-28,83,73,61,66,62,57,90,70,54,29.93,29.86,3,2,0,0.00
2013-8-29,86,68,60,66,61,57,93,78,50,30.05,29.93,4,1,0,0.00
2013-8-30,94,69,54,65,59,52,95,73,36,30.02,29.88,5,1,0,0.00
2013-8-31,84,64,51,62,54,-100,93,74,43,29.96,29.86,5,1,0,0.00
2013-9-1,83,65,54,62,56,52,94,75,46,29.94,29.85,3,1,0,0.00
2013-9-2,85,68,55,64,59,53,94,76,49,29.94,29.86,3,0,0,0.00
2013-9-3,85,66,50,59,55,48,95,71,37,29.98,29.88,3,0,0,0.00
2013-9-4,86,66,49,61,55,47,95,71,39,30.02,29.90,2,0,0,0.00
2013-9-5,88,67,50,60,54,48,95,67,36,29.98,29.91,1,0,0,0.00
2013-9-6,96,70,49,59,51,46,93,58,20,29.97,29.82,2,0,0,0.00
2013-9-7,98,70,49,55,49,-100,91,56,16,29.86,29.78,3,1,0,0.00
2013-9-8,89,65,53,62,54,49,94,71,34,29.87,29.75,3,1,0,0.00
2013-9-9,92,64,49,62,54,47,94,72,34,29.81,29.69,4,1,0,0.00
2013-9-10,75,62,56,62,57,53,92,84,64,29.90,29.72,2,0,0,0.00
2013-9-11,70,64,61,61,59,57,92,84,70,29.99,29.90,0,0,0,0.00
2013-9-12,79,65,57,64,58,54,92,80,57,29.98,29.86,3,1,0,0.00
2013-9-13,79,62,55,62,55,52,94,80,50,29.90,29.73,5,1,0,0.00
2013-9-14,79,61,54,61,53,-100,93,78,52,29.82,29.70,5,1,0,0.00
2013-9-15,82,65,52,60,55,49,94,75,46,29.85,29.75,3,1,0,0.00
2013-9-16,88,66,52,62,55,50,95,74,37,29.89,29.74,5,1,0,0.00
2013-9-17,82,65,49,57,51,47,94,65,37,29.87,29.79,5,1,0,0.00
2013-9-18,65,60,56,50,48,47,73,67,56,29.88,29.82,1,0,0,0.00
2013-9-19,91,63,45,53,47,38,92,64,18,29.86,29.73,3,0,0,0.00
2013-9-20,79,59,42,62,53,40,95,80,54,29.84,29.77,2,0,0,0.00
2013-9-21,73,61,53,61,55,-100,95,83,56,29.89,29.77,2,0,0,0.00
2013-9-22,78,60,45,57,51,43,95,75,40,29.99,29.88,1,0,0,0.00
2013-9-23,87,65,48,63,55,46,95,73,41,30.02,29.90,3,0,0,0.00
2013-9-24,81,63,51,56,52,47,95,70,35,29.97,29.87,3,1,0,0.00
2013-9-25,74,60,45,50,45,41,92,62,32,29.94,29.80,4,1,0,0.00
2013-9-26,81,62,46,45,42,37,76,51,22,29.99,29.84,2,0,0,0.00
2013-9-27,82,62,44,49,42,35,89,55,19,30.09,29.99,2,0,0,0.00
2013-9-28,83,60,42,55,44,-100,92,63,22,30.09,29.99,3,0,0,0.00
2013-9-29,73,61,52,62,57,49,93,86,69,30.09,30.03,2,0,0,0.00
2013-9-30,74,64,59,65,60,52,95,87,70,30.05,29.96,3,1,0,0.00
2013-10-1,78,66,57,50,48,47,72,55,35,29.94,29.89,2,0,0,0.00
2013-10-2,82,61,46,52,45,35,93,61,19,30.02,29.91,4,1,0,0.00
2013-10-3,78,63,46,41,35,22,76,40,13,30.09,29.96,3,1,0,0.00
2013-10-4,85,71,53,36,28,22,53,21,11,30.08,30.01,2,1,0,0.00
2013-10-5,88,63,39,42,36,29,82,45,13,30.19,30.08,2,0,0,0.00
2013-10-6,87,60,39,43,38,33,86,51,15,30.13,29.99,0,0,0,0.00
2013-10-7,85,60,40,48,40,31,86,56,15,30.00,29.84,3,0,0,0.00
2013-10-8,81,58,40,50,44,37,93,63,30,29.91,29.70,2,0,0,0.00
2013-10-9,76,59,46,46,43,41,82,58,32,29.75,29.61,2,0,0,0.00
2013-10-10,74,56,43,52,45,39,91,70,37,30.01,29.75,2,0,0,0.00
2013-10-11,68,52,44,52,46,41,95,83,50,30.10,29.97,3,0,0,0.00
2013-10-12,71,52,40,52,43,-100,95,77,50,30.02,29.88,4,1,0,0.00
2013-10-13,78,55,38,49,43,36,93,68,32,30.06,29.92,2,0,0,0.00
2013-10-14,83,56,37,47,40,35,94,63,21,30.12,29.98,1,0,0,0.00
2013-10-15,89,58,37,45,37,32,91,55,13,30.05,29.93,1,0,0,0.00
2013-10-16,86,57,36,43,37,33,89,55,16,30.09,29.99,1,0,0,0.00
2013-10-17,86,57,37,45,38,33,88,57,18,30.09,29.94,2,0,0,0.00
2013-10-18,82,54,37,49,42,35,94,70,27,30.06,29.97,2,0,0,0.00
2013-10-19,87,56,36,48,40,-100,94,66,18,30.09,29.97,1,0,0,0.00
2013-10-20,80,53,39,52,44,37,95,76,32,30.03,29.90,3,1,0,0.00
2013-10-21,75,53,45,55,47,43,95,82,47,30.01,29.90,2,0,0,0.00
2013-10-22,79,53,44,54,47,42,95,82,42,30.03,29.91,3,1,0,0.00
2013-10-23,74,52,44,55,46,42,95,84,50,29.98,29.88,4,1,0,0.00
2013-10-24,68,52,46,52,47,44,94,83,54,30.09,29.97,2,0,0,0.00
2013-10-25,72,54,40,53,46,38,95,76,50,30.18,30.08,3,0,0,0.00
2013-10-26,84,54,37,51,42,-100,95,71,29,30.15,30.00,2,0,0,0.00
2013-10-27,66,51,45,51,46,41,95,83,54,30.03,29.64,3,0,0,0.00
2013-10-28,67,52,37,46,41,-100,93,71,46,29.83,29.66,3,1,0,0.00